Regional Weather Roundup
Issued by NWS

Home | Current Version | Previous Version | Text Only | Print | Product List | Glossary Off
Versions: 1 2 3 4 5 6 7 8 9 10 11 12 13 14 15 16 17 18 19 20 21 22 23 24 25 26 27 28 29 30 31 32 33 34 35 36 37 38 39 40 41 42 43 44 45 46 47 48 49 50

000
ASUS43 KLSX 270610
RWRMO

WEATHER SUMMARY FOR MISSOURI
NATIONAL WEATHER SERVICE SPRINGFIELD MO
100 AM CDT FRI MAY 27 2016

NOTE: "FAIR" INDICATES FEW OR NO CLOUDS BELOW 12,000 FEET WITH NO
       SIGNIFICANT WEATHER AND/OR OBSTRUCTIONS TO VISIBILITY.
       CURRENT SKY AND/OR WEATHER CONDITIONS ARE NOT AVAILABLE FOR
       CHILLICOTHE AND FARMINGTON.

MOZ001>031-035>038-043-044-053-054-270700-
...NORTHERN AND WESTERN MISSOURI...

CITY           SKY/WX    TMP DP  RH WIND       PRES   REMARKS
KANSAS CTY INT CLOUDY    63  60  90 E10       29.86S
6HR MIN TEMP:  61; 6HR MAX TEMP:  64; 6HR PCP:  0.73;

KANSAS C DTWN  CLOUDY    64  62  93 E9        29.84F
6HR MIN TEMP:  63; 6HR MAX TEMP:  66; 6HR PCP:  1.02;

LEE`S SUMMIT   CLOUDY    63  62  97 E9        29.87S
6HR MIN TEMP:  62; 6HR MAX TEMP:  64; 6HR PCP:  0.58;

ST JOSEPH      LGT RAIN  63  60  90 E15       29.78F
6HR MIN TEMP:  62; 6HR MAX TEMP:  65; 6HR PCP:  0.57;

CHILLICOTHE      N/A     64  61  90 NE6       29.87F
6HR MIN TEMP:  63; 6HR MAX TEMP:  65; 6HR PCP:  1.02;

KIRKSVILLE     LGT RAIN  63  61  93 NE7       29.86F
6HR MIN TEMP:  63; 6HR MAX TEMP:  72; 6HR PCP:  0.40;


$$
MOZ066>068-077>081-088>096-101>105-270700-
...SOUTHWEST MISSOURI...

CITY           SKY/WX    TMP DP  RH WIND       PRES   REMARKS
SPRINGFIELD    CLOUDY    69  64  84 SE7       29.87R
6HR MIN TEMP:  68; 6HR MAX TEMP:  79; 6HR PCP: TRACE;

JOPLIN         CLOUDY    66  60  81 E5        29.85S
6HR MIN TEMP:  65; 6HR MAX TEMP:  80;


$$
MOZ032>034-039>042-045>050-055>058-069>072-270700-
...CENTRAL MISSOURI...

CITY           SKY/WX    TMP DP  RH WIND       PRES   REMARKS
COLUMBIA       RAIN      64  63  96 SE7       29.90R FOG
6HR MIN TEMP:  64; 6HR MAX TEMP:  79; 6HR PCP:  1.50;

JEFFERSON CITY LGT RAIN  65  64  97 SE7       29.90R
6HR MIN TEMP:  65; 6HR MAX TEMP:  80; 6HR PCP:  1.50;

ROLLA          CLOUDY    65  63  93 E7        29.91F
6HR MIN TEMP:  65; 6HR MAX TEMP:  76; 6HR PCP:  0.31;

SEDALIA        CLOUDY    65  63  93 MISG      29.88F
6HR MIN TEMP:  64; 6HR MAX TEMP:  69; 6HR PCP:  0.60;

WHITEMAN AFB   CLOUDY    63  63 100 SE7       29.85F
WARRENSBURG    CLOUDY    61  61 100 NE3       29.87R

$$
MOZ051-052-059>065-270700-
...EAST CENTRAL MISSOURI...

CITY           SKY/WX    TMP DP  RH WIND       PRES   REMARKS
ST LOUIS INTL  LGT RAIN  71  66  84 SW7       29.93F
6HR MIN TEMP:  71; 6HR MAX TEMP:  78; 6HR PCP:  0.04;

SPIRIT OF STL  LGT RAIN  70  68  94 SW3       29.92S
6HR MIN TEMP:  70; 6HR MAX TEMP:  75; 6HR PCP:  0.04;

ST CHARLES     LGT RAIN  70  68  93 SW9       29.90F
6HR MIN TEMP:  70; 6HR MAX TEMP:  78; 6HR PCP:  0.30;


$$
MOZ072>076-082>087-097>100-106>115-270700-
...SOUTH CENTRAL AND SOUTHEAST MISSOURI...

CITY           SKY/WX    TMP DP  RH WIND       PRES   REMARKS
CAPE GIRARDEAU RAIN      67  64  90 S10       29.97F FOG
6HR MIN TEMP:  67; 6HR MAX TEMP:  71; 6HR PCP:  0.21;

FARMINGTON     LGT RAIN  66  64  93 S8        29.97R
6HR MIN TEMP:  66; 6HR MAX TEMP:  73;

POPLAR BLUFF   CLOUDY    68  65  90 SE6       29.93F
6HR MIN TEMP:  67; 6HR MAX TEMP:  72; 6HR PCP:  0.31;

WEST PLAINS    CLOUDY    68  64  87 SE10      29.94S
6HR MIN TEMP:  68; 6HR MAX TEMP:  78;


$$




USA.gov is the U.S. government's official web portal to all federal, state and local government web resources and services.